Home   Weather   Boise   Past weeks
Flag for USA

Past Weather in Boise, Idaho, USA — Yesterday and Last 2 Weeks

Now
83 °F

Sunny.


Feels Like: 81 °F
Forecast: 85 / 62 °F
Wind: 15 mph from Northwest

Location: Boise Air Terminal

Current Time: Jul 16, 2019 at 4:35:37 pm

Latest Report: Jul 16, 2019 at 3:53 pm


Visibility: 10 mi

Pressure: 29.83 "Hg (27.17 "Hg at 822m altitude)

Humidity: 24%

Dew Point: 42 °F

Location of BoiseLocation

Past Weather in Boise — Graph

°F

Boise Temperature Yesterday

Maximum temperature yesterday: 91 °F (at 4:53 pm)
Minimum temperature yesterday: 62 °F (at 6:53 am)
Average temperature yesterday: 77 °F

High & Low Weather Summary for the Past Weeks

 TemperatureHumidityPressure
High98 °F (Jul 12, 4:53 pm)73% (Jul 14, 7:00 am)30.08 "Hg (Jul 14, 7:00 am)
Low53 °F (Jul 4, 5:53 am)15% (Jul 5, 6:53 pm)29.69 "Hg (Jul 13, 8:53 pm)
Average76 °F37%29.87 "Hg
* Reported Jul 1 2:53 pm — Jul 16 2:53 pm, Boise. Weather by CustomWeather, © 2019

Note: Actual official high and low records may vary slightly from our data, if they occured in-between our weather recording intervals... More about our weather records

Advertising

Boise Weather History for the Previous 24 Hours

Scroll right to see more
 ConditionsComfort  
Time TempWeatherWind HumidityBarometerVisibility
2:53 pm
Tue, Jul 16
83 °FSunny.12 mph26%29.85 "Hg10 mi
1:53 pm79 °FSunny.13 mph36%29.87 "Hg10 mi
12:53 pm79 °FPassing clouds.15 mph38%29.88 "Hg10 mi
11:53 am77 °FPassing clouds.15 mph40%29.89 "Hg10 mi
10:53 am73 °FSunny.10 mph50%29.90 "Hg10 mi
9:53 am67 °FPartly sunny.12 mph61%29.92 "Hg10 mi
8:53 am65 °FPassing clouds.12 mph66%29.92 "Hg10 mi
7:53 am63 °FPassing clouds.7 mph70%29.90 "Hg10 mi
6:53 am63 °FPartly cloudy.9 mph70%29.90 "Hg10 mi
5:53 am63 °FPassing clouds.8 mph70%29.89 "Hg10 mi
4:53 am64 °FPassing clouds.8 mph68%29.88 "Hg10 mi
3:53 am66 °FPassing clouds.7 mph63%29.87 "Hg10 mi
2:53 am66 °FPassing clouds.6 mph63%29.87 "Hg10 mi
1:53 am66 °FPassing clouds.5 mph63%29.87 "Hg10 mi
12:53 am69 °FClear.12 mph55%29.86 "Hg10 mi
11:53 pm
Mon, Jul 15
72 °FClear.13 mph43%29.86 "Hg10 mi
10:53 pm75 °FClear.10 mph39%29.86 "Hg10 mi
9:53 pm76 °FSunny.16 mph37%29.84 "Hg10 mi
8:53 pm79 °FSunny.16 mph36%29.83 "Hg10 mi
7:53 pm88 °FSunny.10 mph20%29.80 "Hg10 mi
6:53 pm89 °FSunny.10 mph19%29.80 "Hg10 mi
5:53 pm90 °FSunny.8 mph19%29.81 "Hg10 mi
4:53 pm91 °FSunny.9 mph20%29.83 "Hg10 mi
Weather by CustomWeather, © 2019

See weather overview

LIVE PARTIAL LUNAR ECLIPSE – Watch the eclipse as it happens